Regional Weather Roundup
Issued by NWS Sioux Falls, SD

Home | Current Version | Previous Version | Text Only | Print | Product List | Glossary On
Versions: 1 2 3 4 5 6 7 8 9 10 11 12 13 14 15 16 17 18 19 20 21 22 23 24 25 26 27 28 29 30 31 32 33 34 35 36 37 38 39 40 41 42 43 44 45 46 47 48 49 50
000
ASUS43 KFSD 232210
RWRFSD

WEATHER ROUNDUP FOR SE SOUTH DAKOTA/SW MINNESOTA/NW IOWA
NATIONAL WEATHER SERVICE SIOUX FALLS SD
500 PM CDT SUN JUL 23 2017

NOTE: "FAIR" INDICATES FEW OR NO CLOUDS BELOW 12,000 FEET WITH NO
SIGNIFICANT WEATHER AND OR OBSTRUCTIONS TO VISIBILITY.


SDZ038>040-050-052>070-232300-
SOUTHEAST SOUTH DAKOTA

CITY           SKY/WX    TMP DP  RH WIND       PRES   REMARKS
BROOKINGS      PTSUNNY   75  61  61 NE8       30.01S
CHAMBERLAIN    SUNNY     89  53  29 NW10      29.99F
HURON          SUNNY     80  59  48 N12G20    30.00S
MADISON        FAIR      75  61  60 N14G21    30.01F
MITCHELL       SUNNY     82  58  43 N10       30.00F
SIOUX FALLS    MOSUNNY   81  61  50 N12       29.99S
WINNER         FAIR      92  49  22 VRB7G18   30.00F
YANKTON        SUNNY     83  58  42 N9        29.99S
$$

MNZ071-072-080-081-089-090-097-098-232300-
SOUTHWEST MINNESOTA

CITY           SKY/WX    TMP DP  RH WIND       PRES   REMARKS
FAIRMONT       CLOUDY    74  61  63 N10G17    29.98R
JACKSON        PTSUNNY   72  59  64 VRB7      30.00S
LUVERNE        MOSUNNY   77  55  47 N10       30.00S
MARSHALL       MOSUNNY   71  60  68 N7        30.01S
MONTEVIDEO     PTSUNNY   81  61  50 NE9       29.99F
PIPESTONE      MOSUNNY   77  57  50 N8        30.01S
REDWOOD FALLS  PTSUNNY   75  59  57 N9        29.97F
WINDOM         SUNNY     75  59  57 NW13      30.00R
WORTHINGTON    MOSUNNY   75  59  57 N12       30.01
$$

IAZ001>003-012>014-020>022-031-032-NEZ013-014-SDZ071-232300-
NORTHWEST IOWA

CITY           SKY/WX    TMP DP  RH WIND       PRES   REMARKS
CHEROKEE       PTSUNNY   81  59  48 N12       29.97S
DENISON        SUNNY     81  61  50 NW9G15    29.97F
ESTHERVILLE    MOSUNNY   74  60  61 N13       29.98S
ORANGE CITY    MOSUNNY   81  61  50 N9        29.99S
SHELDON        MOSUNNY   77  63  61 N12       29.97S
SIOUX CITY     SUNNY     85  61  44 NW12      29.96S
SPENCER        MOSUNNY   79  59  50 N15       29.99R
STORM LAKE       N/A     79  61  53 N14       29.98R
$$

ABBREVIATIONS USED IN REMARKS
   TC - TEMPERATURE IN CELSIUS
  WCI - WIND CHILL INDEX
   HX - HEAT INDEX
  VSB - VISIBILITY





USA.gov is the U.S. government's official web portal to all federal, state and local government web resources and services.